ECHOSTAR 10

Last updated on Mon Jul 07 2025 00:02:43 GMT+0000 (Coordinated Universal Time)

1 28935U 06003A 25187.54231296 -.00000038 00000+0 00000+0 0 9991 2 28935 0.0284 312.5971 0002113 112.8492 304.3542 1.00272340 70990
UTC large
Height (km)
Speed (km/s)
/
Latitude / Longitude
Inclination (degrees)
Orbital Period (minutes)
Azimuth
Elevation
Range (km)
Doppler Factor

Next 0 passes for location: London (51.5072 / 0.1276)

Sorry there are no passes over London.